Location: *
(46.1866°S, 178.5290°W)
Time: 10:39:50
(UTC+00:00)

Meteor 2-19 Rocket - Pass Details

Date: 19 May 2021
Orbit: 936 x 959 km, 82.5° (Epoch: 14 June)

Event Time Altitude Azimuth Distance (km) Brightness Sun altitude
Rises 05:14:26 0° 358° (N) 3,598 7.8 -8.2°
Reaches altitude 10° 05:16:54 10° 359° (N) 2,659 7.1 -8.6°
Maximum altitude 05:22:59 78° 84° (E) 973 4.4 -9.6°
Drops below altitude 10° 05:29:07 10° 168° (SSE) 2,685 6.5 -10.6°
Sets 05:31:37 0° 169° (S) 3,636 7.2 -11.0°
